K4AXV-13 Weather Reports


time (UTC)temp
F
wind
direction
speed
knots
gust
knots
rain 1hr
in
rain 24hr
in
rain mn
in
humidity
%
barometer
mb
20260906220920 82 155 7.8 10.4 0.00 0.02 0.00
20260906220421 82 124 7.0 7.0 0.00 0.02 0.00
20260906215920 82 125 7.8 7.8 0.00 0.02 0.00
20260906214919 83 143 7.0 7.8 0.00 0.02 0.00
20260906213919 84 139 7.0 7.0 0.00 0.02 0.00
20260906213420 85 118 7.0 4.3 0.00 0.02 0.00
20260906212420 85 127 6.1 7.8 0.00 0.02 0.00
20260906205918 85 166 6.1 7.0 0.00 0.02 0.00
20260906205419 85 125 7.8 7.8 0.00 0.02 0.00
20260906204918 85 104 8.7 9.6 0.00 0.02 0.00
20260906204418 86 97 7.8 7.0 0.00 0.02 0.00
20260906202418 86 105 8.7 9.6 0.00 0.02 0.00
20260906200916 87 165 6.1 7.8 0.00 0.02 0.00
20260906195916 86 129 8.7 7.0 0.00 0.02 0.00
20260906194417 86 160 6.1 10.4 0.00 0.02 0.00
20260906193915 87 117 6.1 7.0 0.00 0.02 0.00
20260906192416 87 127 7.0 6.1 0.00 0.02 0.00
20260906191413 87 114 5.2 4.3 0.00 0.02 0.00
20260906190912 87 115 7.0 7.0 0.00 0.02 0.00
20260906190413 87 146 6.1 8.7 0.00 0.02 0.00
20260906185911 87 143 5.2 4.3 0.00 0.02 0.00
20260906185413 87 122 3.5 4.3 0.00 0.02 0.00
20260906184412 87 153 7.8 7.0 0.00 0.02 0.00
20260906183910 87 148 4.3 3.5 0.00 0.02 0.00
20260906183412 87 159 5.2 4.3 0.00 0.02 0.00
20260906182910 87 143 7.0 7.8 0.00 0.02 0.00
20260906182412 87 131 4.3 2.6 0.00 0.02 0.00
20260906181910 87 127 3.5 3.5 0.00 0.02 0.00
20260906181411 87 114 6.1 7.0 0.00 0.02 0.00
20260906180908 87 138 2.6 3.5 0.00 0.02 0.00
20260906180410 87 127 6.1 4.3 0.00 0.02 0.00
20260906175908 87 132 8.7 7.8 0.00 0.02 0.00
20260906175409 88 120 3.5 3.5 0.00 0.02 0.00
20260906174908 87 135 5.2 4.3 0.00 0.02 0.00
20260906174409 87 121 7.8 7.8 0.00 0.02 0.00
20260906173907 88 142 1.7 1.7 0.00 0.02 0.00
20260906173409 87 152 1.7 2.6 0.00 0.02 0.00
20260906172907 87 150 4.3 3.5 0.00 0.02 0.00
20260906171906 88 128 6.1 5.2 0.00 0.02 0.00
20260906171408 88 91 1.7 2.6 0.00 0.02 0.00
20260906170906 88 89 2.6 2.6 0.00 0.02 0.00
20260906170408 88 93 1.7 0.9 0.00 0.02 0.00
20260906165905 88 125 4.3 4.3 0.00 0.02 0.00
20260906165406 87 121 2.6 4.3 0.00 0.02 0.00
20260906164904 87 146 2.6 4.3 0.00 0.02 0.00
20260906164406 87 149 4.3 2.6 0.00 0.02 0.00
20260906163904 87 55 0.0 0.0 0.00 0.02 0.00
20260906163406 87 80 2.6 3.5 0.00 0.02 0.00
20260906162904 87 73 3.5 3.5 0.00 0.02 0.00
20260906161903 86 83 1.7 1.7 0.00 0.02 0.00
20260906161405 87 100 4.3 3.5 0.00 0.02 0.00
20260906160903 86 97 1.7 2.6 0.00 0.02 0.00
20260906160404 86 83 2.6 2.6 0.00 0.02 0.00
20260906155902 86 94 2.6 2.6 0.00 0.02 0.00
20260906155404 86 118 1.7 4.3 0.00 0.02 0.00
20260906154902 85 51 2.6 2.6 0.00 0.02 0.00
20260906154403 86 97 1.7 2.6 0.00 0.02 0.00
20260906153403 85 129 3.5 3.5 0.00 0.02 0.00
20260906152901 85 135 3.5 2.6 0.00 0.02 0.00
20260906152403 85 153 5.2 5.2 0.00 0.02 0.00
20260906151901 85 136 3.5 2.6 0.00 0.02 0.00
20260906150900 85 82 2.6 2.6 0.00 0.02 0.00
20260906145859 84 115 4.3 5.2 0.00 0.02 0.00
20260906145400 84 93 3.5 3.5 0.00 0.02 0.00
20260906144400 84 135 3.5 2.6 0.00 0.02 0.00
20260906142356 81 91 2.6 2.6 0.00 0.02 0.00
20260906135853 80 84 3.5 2.6 0.00 0.02 0.00
20260906134354 79 93 2.6 4.3 0.00 0.02 0.00
20260906132852 79 113 2.6 1.7 0.00 0.02 0.00
20260906132354 79 158 0.0 3.5 0.00 0.02 0.00
20260906131353 78 86 2.6 3.5 0.00 0.02 0.00
20260906130850 78 86 0.0 0.0 0.00 0.02 0.00
20260906130351 77 93 1.7 1.7 0.00 0.02 0.00
20260906125350 78 104 1.7 1.7 0.00 0.02 0.00
20260906124847 77 90 2.6 2.6 0.00 0.02 0.00
20260906124346 76 87 1.7 2.6 0.00 0.02 0.00
20260906123345 76 188 0.0 0.0 0.00 0.02 0.00
20260906122844 77 188 0.0 0.0 0.00 0.02 0.00
20260906121841 76 188 0.0 0.0 0.00 0.02 0.00
20260906121343 76 188 0.0 0.0 0.00 0.02 0.00
20260906120839 76 188 0.0 0.0 0.00 0.02 0.00
20260906120340 76 188 0.0 0.0 0.00 0.02 0.00
20260906115837 76 188 0.0 0.0 0.00 0.02 0.00
20260906115336 76 188 0.0 0.0 0.00 0.02 0.00
20260906114834 75 188 0.0 0.0 0.00 0.02 0.00
20260906114335 75 188 0.0 0.0 0.00 0.02 0.00
20260906113834 75 188 0.0 0.0 0.00 0.02 0.00
20260906113335 74 188 0.0 0.0 0.00 0.02 0.00
20260906112834 73 188 0.0 0.0 0.00 0.02 0.00
20260906112335 74 188 0.0 0.0 0.00 0.02 0.00
20260906111831 73 188 0.0 0.0 0.00 0.02 0.00
20260906111333 73 188 0.0 0.0 0.00 0.02 0.00
20260906105330 72 188 0.0 0.0 0.00 0.02 0.00
20260906104828 73 188 0.0 0.0 0.00 0.02 0.00
20260906103827 73 188 0.0 0.0 0.00 0.02 0.00
20260906102825 73 188 0.0 0.0 0.00 0.02 0.00
20260906102326 73 188 0.0 0.0 0.00 0.02 0.00
20260906101325 73 188 0.0 0.0 0.00 0.02 0.00
20260906100819 73 188 0.0 0.0 0.00 0.02 0.00
20260906100320 73 188 0.0 0.0 0.00 0.02 0.00
20260906095818 73 188 0.0 0.0 0.00 0.02 0.00
20260906095447 73 188 0.0 0.0 0.00 0.02 0.00
20260906095319 73 188 0.0 0.0 0.00 0.02 0.00
20260906094817 73 188 0.0 0.0 0.00 0.02 0.00
20260906093815 74 188 0.0 0.0 0.00 0.02 0.00
20260906093316 73 188 0.0 0.0 0.00 0.02 0.00
20260906092813 74 188 0.0 0.0 0.00 0.02 0.00
20260906091812 73 188 0.0 0.0 0.00 0.02 0.00
20260906091313 74 188 0.0 0.0 0.00 0.02 0.00
20260906090313 74 188 0.0 0.0 0.00 0.02 0.00
20260906085809 74 188 0.0 0.0 0.00 0.02 0.00
20260906085310 74 188 0.0 0.0 0.00 0.02 0.00
20260906084807 74 188 0.0 0.0 0.00 0.02 0.00
20260906084308 74 188 0.0 0.0 0.00 0.02 0.00
20260906083806 74 188 0.0 0.0 0.00 0.02 0.00
20260906083308 74 188 0.0 0.0 0.00 0.02 0.00
20260906082804 74 188 0.0 0.0 0.00 0.02 0.00
20260906082306 73 188 0.0 0.0 0.00 0.02 0.00
20260906081802 74 188 0.0 0.0 0.00 0.02 0.00
20260906081303 74 188 0.0 0.0 0.00 0.02 0.00
20260906080802 75 188 0.0 0.0 0.00 0.02 0.00
20260906074800 75 188 0.0 0.0 0.00 0.02 0.00
20260906074301 75 188 0.0 0.0 0.00 0.02 0.00
20260906073759 75 188 0.0 0.0 0.00 0.02 0.00
20260906072759 75 290 0.0 0.0 0.00 0.02 0.00
20260906071756 75 308 0.9 1.7 0.00 0.02 0.00
20260906070756 75 46 0.0 0.0 0.00 0.02 0.00
20260906065754 75 46 0.0 0.0 0.00 0.02 0.00
20260906065256 75 46 0.0 0.0 0.00 0.02 0.00
20260906064752 75 46 0.0 0.0 0.00 0.02 0.00
20260906063751 75 46 0.0 0.0 0.00 0.02 0.00
20260906063252 75 46 0.0 0.0 0.00 0.00 0.02
20260906062249 76 46 0.0 0.0 0.00 0.00 0.02
20260906061745 76 46 0.0 0.0 0.00 0.00 0.02
20260906061247 76 46 0.0 0.0 0.00 0.00 0.02
20260906060745 76 46 0.0 0.0 0.00 0.00 0.02
20260906060246 76 46 0.0 0.0 0.00 0.00 0.02
20260906055745 76 46 0.0 0.0 0.00 0.00 0.02
20260906055246 76 46 0.0 0.0 0.00 0.00 0.02
20260906054745 77 46 0.0 0.0 0.00 0.00 0.02
20260906052743 76 46 0.0 0.0 0.01 0.00 0.02
20260906051742 77 46 0.0 0.0 0.01 0.00 0.02
20260906051244 77 46 0.0 0.0 0.01 0.00 0.02
20260906050742 77 46 0.0 0.0 0.01 0.00 0.02
20260906050243 77 46 0.0 0.0 0.01 0.00 0.02
20260906045741 77 46 0.0 0.0 0.01 0.00 0.02
20260906045243 78 46 0.0 0.0 0.01 0.00 0.02
20260906044241 77 46 0.0 0.0 0.01 0.00 0.02
20260906043740 78 46 0.0 0.0 0.01 0.00 0.02
20260906043241 77 46 0.0 0.0 0.00 0.00 0.02
20260906042739 78 46 0.0 0.0 0.00 0.00 0.02
20260906041240 77 46 0.0 0.0 0.00 0.00 0.01
20260906040739 78 46 0.0 0.0 0.00 0.00 0.01
20260906040240 78 46 0.0 0.0 0.00 0.00 0.01
20260906035738 78 46 0.0 0.0 0.00 0.00 0.01
20260906035239 78 46 0.0 0.0 0.00 0.00 0.01
20260906034737 79 46 0.0 0.0 0.00 0.00 0.01
20260906025235 79 46 0.0 0.0 0.00 0.00 0.01
20260906024733 79 77 0.9 0.9 0.00 0.00 0.01
20260906024234 79 84 0.9 0.9 0.00 0.00 0.01
20260906022233 79 93 1.7 0.9 0.00 0.00 0.01
20260906021732 80 77 1.7 1.7 0.00 0.00 0.01
20260906021233 80 72 0.0 2.6 0.00 0.00 0.01
20260906020731 79 42 0.0 0.0 0.00 0.00 0.01
20260906014227 80 42 0.0 0.0 0.00 0.00 0.01
20260906013226 80 42 0.0 0.0 0.01 0.00 0.01
20260906011724 80 82 0.0 0.0 0.01 0.00 0.01
20260906010723 80 82 0.9 0.0 0.01 0.00 0.01
20260906005221 81 110 2.6 2.6 0.01 0.00 0.01
20260906004221 83 239 0.0 0.0 0.01 0.00 0.01
20260906002719 84 239 0.0 0.0 0.00 0.00 0.00
20260906002220 84 239 0.0 0.0 0.00 0.00 0.00
20260906001718 84 239 0.0 0.0 0.00 0.00 0.00
20260906000718 85 239 1.7 0.0 0.00 0.00 0.00
20260905234717 85 359 3.5 2.6 0.00 0.00 0.00
20260905234219 85 248 1.7 2.6 0.00 0.00 0.00
20260905232218 87 238 1.7 3.5 0.00 0.00 0.00
20260905230217 88 335 2.6 2.6 0.00 0.00 0.00
20260905225716 88 305 1.7 0.0 0.00 0.00 0.00
20260905224216 89 307 1.7 0.9 0.00 0.00 0.00
20260905222712 90 287 0.0 1.7 0.00 0.00 0.00